Home   Weather   Butte   Past weeks

Flag for USA Past Weather in Butte, Montana, USA — Yesterday and Last 2 Weeks

47 °F

Passing clouds.

Feels Like: 45 °F
Forecast: 36 / 45 °F
Wind: 5 mph from South

Location: Mooney Airport

Current Time: Oct 28, 2016 at 2:40:53 AM

Latest Report: Oct 28, 2016 at 1:53 AM

Visibility: 10 mi

Pressure: 29.78 "Hg (24.27 "Hg at 1685m altitude)

Humidity: 64%

Dew Point: 35 °F

Location of ButteLocation

Past Weather in Butte — Graph


Butte Temperature Yesterday

Maximum temperature yesterday: 62 °F (at 2:53 PM)
Minimum temperature yesterday: 35 °F (at 7:53 AM)
Average temperature yesterday: 49 °F

High & Low Weather Summary for the Past Weeks

High62 °F (Oct 27, 2:53 PM)100% (Oct 24, 9:53 PM)30.49 "Hg (Oct 24, 9:53 PM)
Low24 °F (Oct 13, 5:53 AM)19% (Oct 23, 3:53 PM)29.39 "Hg (Oct 16, 12:53 AM)
Average43 °F65%29.95 "Hg
* Reported Oct 13 12:53 AM — Oct 28 12:53 AM, Butte, Weather by CustomWeather, © 2016

Note: Actual official high and low records may vary slightly from our data, if they occured in-between our weather recording intervals... More about our weather records


Butte Weather History for the Previous 24 Hours

Scroll right to see more
Time TempWeatherWind HumidityBarometerVisibility
12:53 AM
Fri, Oct 28
47 °FPassing clouds.3 mph61%29.78 "Hg10 mi
11:53 PM
Thu, Oct 27
46 °FClear.6 mph66%29.78 "Hg10 mi
10:53 PM53 °FPassing clouds.6 mph48%29.80 "Hg10 mi
9:53 PM56 °FPassing clouds.5 mph44%29.82 "Hg10 mi
8:53 PM58 °FPassing clouds.6 mph41%29.85 "Hg10 mi
7:53 PM52 °FPassing clouds.8 mph55%29.86 "Hg10 mi
6:53 PM54 °FPassing clouds.No wind49%29.83 "Hg10 mi
5:53 PM58 °FBroken clouds.5 mph39%29.81 "Hg10 mi
4:53 PM61 °FMore clouds than sun.15 mph39%29.84 "Hg10 mi
3:53 PM62 °FPartly sunny.13 mph38%29.78 "Hg10 mi
2:53 PM62 °FSunny.15 mph38%29.83 "Hg10 mi
1:53 PM61 °FSunny.18 mph39%29.84 "Hg10 mi
12:53 PM61 °FSunny.20 mph39%29.87 "Hg10 mi
11:53 AM60 °FSunny.12 mph39%29.88 "Hg10 mi
10:53 AM48 °FSunny.3 mph68%29.93 "Hg10 mi
9:53 AM41 °FSunny.No wind82%29.98 "Hg10 mi
8:53 AM35 °FSunny.No wind92%30.00 "Hg10 mi
7:53 AM35 °FClear.No wind88%29.99 "Hg10 mi
6:53 AM36 °FClear.3 mph89%30.00 "Hg10 mi
5:53 AM37 °FClear.6 mph86%29.99 "Hg10 mi
4:53 AM37 °FClear.3 mph89%30.00 "Hg10 mi
3:53 AM43 °FClear.No wind76%29.98 "Hg10 mi
2:53 AM38 °FClear.No wind86%30.02 "Hg10 mi
Weather by CustomWeather, © 2016

See weather overviewHow to use our weather pages